Simultaneous Nadir Overpasses (SNOs) Predictions

Prediction of SNOs between METOP-A and NOAA-19 Satellite Orbit:

Table of predicted SNOs for the next 14.0 days since TLE Epoch: 12/6/2019
Index Date (METOP-A) Time (METOP-A) Lat,Lon (METOP-A) SZA (METOP-A ) Date (NOAA-19) Time (NOAA-19) Lat,Lon (NOAA-19) SZA (NOAA-19 ) Distance(km) Time Diff (sec)
1 12/09/2019 01:21:41 80.14, 172.60 103.17 12/09/2019 01:20:41 80.15, 172.76 103.18 3.32 60
2 12/09/2019 02:12:22 -80.15, -20.01 76.82 12/09/2019 02:11:40 -80.16, -20.03 76.82 1.18 42
3 12/09/2019 03:03:02 80.16, 147.45 103.21 12/09/2019 03:02:41 80.14, 147.50 103.18 2.55 21
4 12/09/2019 03:53:44 -80.14, -45.47 76.83 12/09/2019 03:53:40 -80.14, -45.30 76.82 3.33 4
5 12/09/2019 04:44:24 80.15, 121.99 103.20 12/09/2019 04:44:42 80.14, 121.91 103.19 1.59 18
6 12/09/2019 05:35:06 -80.12, -70.93 76.84 12/09/2019 05:35:41 -80.15, -70.90 76.81 2.81 35
7 12/09/2019 06:25:45 80.14, 96.53 103.19 12/09/2019 06:26:41 80.13, 96.64 103.19 2.27 56
8 12/09/2019 07:16:26 -80.14, -96.09 76.81 12/09/2019 07:17:40 -80.13, -96.17 76.81 1.84 74
9 12/20/2019 00:53:42 80.24,-179.55 103.90 12/20/2019 00:52:31 80.26, 178.65 103.84 34.00 71
10 12/20/2019 01:44:26 -80.17, -12.98 76.20 12/20/2019 01:43:24 -80.18, -12.94 76.20 1.77 62
11 12/20/2019 02:35:06 80.17, 154.38 103.81 12/20/2019 02:34:28 80.18, 154.36 103.81 0.88 38
12 12/20/2019 03:25:47 -80.19, -38.14 76.18 12/20/2019 03:25:24 -80.17, -38.22 76.20 2.49 23
13 12/20/2019 04:16:28 80.16, 128.92 103.79 12/20/2019 04:16:28 80.17, 129.09 103.80 3.29 0
14 12/20/2019 05:07:09 -80.18, -63.60 76.19 12/20/2019 05:07:24 -80.15, -63.49 76.21 3.18 15
15 12/20/2019 05:57:50 80.15, 103.46 103.78 12/20/2019 05:58:29 80.17, 103.50 103.81 2.51 39
16 12/20/2019 06:48:31 -80.17, -89.06 76.21 12/20/2019 06:49:25 -80.16, -89.09 76.20 0.67 54




NCC Satellite Simultaneous Nadir Overpasses (SNOs) Prediction Service
